STARLINK A

Last updated on Wed Jul 02 2025 00:02:08 GMT+0000 (Coordinated Universal Time)

1 64594U 25137A 25182.75001157 -.00797687 20794-3 -20929-2 0 9995 2 64594 53.1566 79.6852 0000655 122.7274 145.8535 15.94126563 2054

Satellite not in orbit